Location: Angola by the Bay
(38.6709°N, 75.1746°W)
Time: 12:27:50
(UTC+00:00)

DIWATA 2B (PO-101) - Visible Passes

Search period start: 11 February 2026 00:00
Search period end: 21 February 2026 00:00
Orbit: 561 x 574 km, 98.1° (Epoch: 10 February)

Date Brightness Start Highest point End Pass type
(mag) Time Alt. Az. Time Alt. Az. Time Alt. Az.
11 Feb ? 10:36:11 10° SSE 10:40:15 85° E 10:44:22 10° NNW visible
11 Feb ? 23:51:49 10° N 23:55:43 48° WNW 23:59:36 10° SSW visible
12 Feb ? 10:37:14 10° SSE 10:41:18 87° E 10:45:24 10° NNW visible
12 Feb ? 23:52:52 10° N 23:56:46 47° WNW 00:00:37 10° SSW visible
13 Feb ? 10:38:16 10° SSE 10:42:21 89° NE 10:46:27 10° NNW visible
13 Feb ? 23:53:55 10° N 23:57:48 46° WNW 00:01:38 10° SW visible
14 Feb ? 10:39:18 10° SSE 10:43:23 89° WSW 10:47:28 10° NNW visible
14 Feb ? 23:54:58 10° N 23:58:49 45° WNW 00:02:39 10° SW visible
15 Feb ? 10:40:21 10° SSE 10:44:25 87° W 10:48:31 10° NNW visible
15 Feb ? 23:56:00 10° N 23:59:51 44° WNW 00:03:40 10° SW visible
16 Feb ? 10:41:22 10° SSE 10:45:27 85° WSW 10:49:33 10° NNW visible
16 Feb ? 23:57:02 10° N 00:00:52 43° WNW 00:04:41 10° SW visible
17 Feb ? 10:42:24 10° SSE 10:46:28 83° WSW 10:50:34 10° NNW visible
17 Feb ? 23:58:04 10° N 00:01:54 42° WNW 00:05:41 10° SW visible
18 Feb ? 10:43:26 10° S 10:47:30 81° WSW 10:51:35 10° NNW visible
18 Feb ? 23:59:06 10° N 00:02:54 41° WNW 00:06:41 10° SW visible
19 Feb ? 10:44:27 10° S 10:48:30 80° WSW 10:52:36 10° NNW visible
20 Feb ? 00:00:08 10° N 00:03:55 40° WNW 00:07:41 10° SW visible
20 Feb ? 10:45:28 10° S 10:49:32 78° WSW 10:53:37 10° NNW visible
